Flag for U.S.A. Weather past 2 weeks in Davenport, Iowa, U.S.A.

Now
77 °F

Broken clouds.


Feels Like: 79 °F
Forecast: 61 / 75 °F
Wind: 13 mph from West

Location: Davenport Municipal Airport

Current Time: Sep 20, 2014 at 6:08:42 PM

Latest Report: Sep 20, 2014 at 4:52 PM


Visibility: 10 mi

Pressure: 29.82 "Hg

Humidity: 64%

Dew point: 64 °F

Location of DavenportLocation

Historic Weather in Davenport — Graph

°F

Davenport temperature yesterday

Maximum temperature yesterday: 75 °F (at 2:52 PM)
Minimum temperature yesterday: 50 °F (at 6:52 AM)
Average temperature yesterday: 64 °F

Past Weeks' High & Low Weather Summary

 TemperatureHumidityPressure
High78 °F (Sep 9, 1:52 PM)97% (Sep 12, 4:52 AM)30.42 "Hg (Sep 12, 4:52 AM)
Low33 °F (Sep 13, 6:52 AM)39% (Sep 13, 2:52 PM)29.49 "Hg (Sep 10, 6:52 AM)
Average58 °F76%30.10 "Hg
* Reported Sep 5 4:52 PM — Sep 20 4:52 PM, Davenport, Weather by CustomWeather, © 2014

Note: Actual official high and low records may vary slightly from our data, if they occured in-between our weather recording intervals... More about our weather records

Advertising

Davenport weather history for previous 24 hours

 ConditionsComfort  
Time TempWeatherWind HumidityBarometerVisibility
4:52 PM
Sep 20
77 °FBroken clouds.13 mph64%29.82 "Hg10 mi
3:52 PM78 °FSunny.15 mph64%29.81 "Hg10 mi
2:52 PM76 °FScattered clouds.12 mph72%29.82 "Hg10 mi
1:52 PM74 °FPartly sunny.8 mph76%29.88 "Hg9 mi
12:52 PM73 °FCloudy.7 mph76%29.88 "Hg9 mi
7:52 AM64 °FFog.12 mph90%29.86 "Hg4 mi
6:52 AM63 °FFog.9 mph90%29.89 "Hg5 mi
5:52 AM64 °FPassing clouds.8 mph87%29.91 "Hg7 mi
4:52 AM64 °FPassing clouds.7 mph81%29.91 "Hg9 mi
3:52 AM64 °FClear.12 mph78%29.88 "Hg10 mi
2:52 AM64 °FClear.12 mph75%29.89 "Hg10 mi
1:52 AM65 °FClear.10 mph73%29.91 "Hg10 mi
12:52 AM66 °FClear.13 mph68%29.90 "Hg10 mi
11:52 PM
Sep 19
66 °FClear.15 mph68%29.89 "Hg10 mi
10:52 PM67 °FClear.18 mph66%29.91 "Hg10 mi
9:52 PM67 °FClear.15 mph63%29.91 "Hg10 mi
8:52 PM68 °FClear.15 mph61%29.92 "Hg10 mi
7:52 PM69 °FSunny.13 mph57%29.93 "Hg10 mi
6:52 PM70 °FSunny.12 mph55%29.94 "Hg10 mi
Weather by CustomWeather, © 2014

See weather overviewHow to use our weather pages